Wetbulb
55.47 55.70 55.67 55.48 56.21 55.35 55.16 55.54 55.18 54.94 55.24 55.33 55.75 55.98 56.06 56.20 56.24 56.22 56.35 56.47 56.79 56.92 56.87 57.13 57.10 56.88 53.56 47.29 46.48 56.02 55.68 55.19 54.12 52.98 50.64 48.90 45.18 44.71 41.21 43.07 44.30 43.04 44.64 47.37 48.87 48.30 48.02
55.27 55.14 55.34 55.14 55.39 55.46 54.67 55.03 55.63 54.62 54.71 55.20 55.40 55.43 55.42 55.89 55.98 56.08 56.20 56.29 56.62 56.75 56.63 56.85 56.85 56.30 50.02 42.48 54.87 55.66 54.01 52.86 52.39 50.94 49.33 49.81 47.14 47.67 43.89 43.11 41.78 44.46 45.17 45.46 46.71 47.06 48.12
54.53 54.70 55.15 55.33 55.06 54.75 54.65 55.51 55.59 55.06 55.05 55.06 55.33 55.90 55.16 55.34 55.42 55.49 55.31 55.69 56.28 56.42 56.59 56.81 56.34 54.24 47.44 45.45 54.85 55.82 53.87 52.17 52.58 50.98 47.85 50.38 50.39 46.59 45.49 41.64 45.73 44.30 40.84 42.79 44.05 45.78 46.13
54.79 54.23 54.16 54.41 54.54 54.41 55.08 55.26 55.27 55.42 55.33 54.83 54.85 55.04 54.56 54.92 54.60 54.85 54.72 54.99 55.18 56.07 56.49 56.47 56.22 52.50 43.86 54.26 55.79 52.86 53.98 51.85 52.36 51.83 50.72 51.54 51.44 47.29 44.77 45.82 42.64 39.38 39.86 34.95 41.51 44.03 45.26
54.18 54.17 53.97 54.16 54.19 54.18 54.47 54.96 55.39 55.31 54.50 54.65 54.30 53.95 53.84 53.74 53.56 53.77 53.86 54.50 55.12 56.03 55.90 55.31 51.77 49.37 42.58 54.08 49.84 52.76 52.43 47.97 49.52 49.01 50.38 51.41 49.54 44.51 43.47 38.53 34.37 36.05 28.97 33.02 36.43 43.83 42.34
54.59 54.38 54.07 53.80 53.84 54.12 54.19 54.01 54.03 53.84 53.98 53.81 53.59 53.44 53.39 53.21 53.79 53.56 53.62 54.58 55.49 55.01 53.93 53.12 51.44 44.64 47.13 44.89 49.54 51.05 52.26 50.72 47.26 46.02 44.67 44.82 42.94 38.64 38.65 35.42 24.87 27.91 29.95 33.07 33.29 40.34 41.05
54.59 55.02 54.17 53.82 54.02 54.12 53.69 54.02 53.98 53.56 53.85 53.33 53.03 53.32 52.70 52.68 53.50 53.22 52.69 52.19 48.35 45.36 48.62 44.78 44.15 44.01 45.42 49.32 51.64 49.26 50.34 48.19 47.65 43.82 37.72 41.43 36.01 31.42 34.05 36.27 35.51 34.36 32.25 32.05 35.84 41.00 38.74
54.41 54.99 55.42 54.92 54.54 54.65 54.69 53.79 53.50 53.07 52.83 52.76 52.71 52.58 52.61 52.56 53.22 53.05 52.06 47.79 47.19 47.83 40.40 47.77 46.91 46.53 48.88 49.11 43.09 47.04 49.53 42.19 41.44 37.01 40.02 37.12 32.70 37.24 39.13 38.73 36.57 34.93 32.39 31.70 36.48 39.23 38.15
54.89 54.67 55.22 55.54 54.56 54.81 54.60 53.15 52.94 52.97 52.91 52.46 52.27 51.89 52.13 52.54 52.73 51.83 49.83 48.70 53.18 51.75 41.24 43.32 46.19 45.19 45.99 47.21 42.97 43.96 47.49 42.84 38.41 36.46 37.57 34.49 36.46 39.94 38.09 36.70 34.82 33.89 31.76 32.94 32.42 39.11 40.70
55.57 55.13 55.02 54.90 54.18 54.11 53.53 53.03 52.61 53.11 52.53 52.02 51.70 51.67 51.97 52.46 49.86 50.60 48.55 51.98 53.38 52.25 34.52 34.95 42.09 45.07 46.42 47.17 41.50 49.00 48.96 44.88 39.23 36.34 36.48 35.63 39.75 38.02 37.29 35.05 35.37 31.84 37.84 37.54 37.74 35.51 28.99
56.60 56.34 55.32 54.62 53.88 53.20 53.52 53.59 53.77 52.68 52.17 51.88 51.73 51.27 51.77 51.33 49.31 48.68 49.90 52.12 52.08 48.52 23.37 37.73 41.75 50.12 47.54 42.74 42.98 44.35 49.96 45.80 39.38 37.87 37.74 35.61 36.55 36.11 36.01 36.33 38.37 34.88 41.06 39.70 38.58 35.65 32.80
56.88 56.27 56.07 54.62 53.77 53.50 53.77 53.99 53.47 52.24 52.03 52.10 51.48 51.13 51.36 51.37 51.19 51.24 52.32 51.51 48.05 34.31 23.74 32.12 42.03 40.37 40.43 42.08 42.38 44.72 44.89 47.28 45.25 39.92 40.44 39.03 41.30 39.05 38.28 40.28 40.12 41.07 38.07 38.61 37.82 35.03 25.94
56.78 56.19 55.95 54.91 53.90 53.39 53.73 53.80 53.05 52.13 51.43 51.53 50.99 50.73 50.27 52.20 47.93 52.52 51.25 46.89 34.59 29.12 39.14 35.09 36.69 39.72 39.15 38.52 39.55 40.64 39.73 38.40 36.28 32.72 33.59 37.10 37.43 40.16 40.78 36.51 40.32 38.48 32.59 27.68 25.55 21.76 23.32
56.65 56.08 55.49 55.38 54.15 53.53 53.37 53.63 52.76 51.94 51.01 50.84 49.90 50.17 51.54 52.17 52.70 52.08 48.56 40.32 28.32 34.80 35.91 41.62 39.32 39.32 36.35 39.11 38.80 39.07 37.87 36.35 40.17 37.80 33.96 31.39 29.97 37.47 40.98 38.41 35.19 34.06 33.73 25.52 18.48 21.44 25.48
56.04 56.01 55.35 55.24 54.51 53.71 53.38 53.40 52.58 51.58 50.59 50.56 49.97 49.47 49.95 51.93 52.63 50.81 43.73 33.85 33.54 36.70 39.51 38.53 39.38 35.36 36.08 38.75 37.37 38.15 37.36 36.55 38.21 38.52 32.24 33.68 30.18 40.75 40.35 40.36 38.46 34.60 31.37 36.19 30.16 31.71 27.11
55.72 55.69 55.29 55.12 54.73 53.88 53.22 52.44 52.56 51.66 50.72 50.79 49.04 49.10 48.90 52.04 52.10 47.65 40.68 36.08 37.46 41.76 41.43 40.91 34.11 37.67 33.04 36.16 35.12 35.98 35.66 38.92 38.73 40.93 40.33 36.67 30.62 38.09 39.74 41.11 40.73 36.41 38.39 31.17 32.24 24.91 23.91
55.59 55.56 55.27 53.52 54.57 54.31 52.98 52.17 52.70 51.59 50.43 51.36 48.29 45.31 48.42 52.12 50.08 43.80 36.22 38.46 40.70 43.69 43.11 39.47 37.39 36.06 36.53 36.13 36.36 35.38 34.91 38.72 40.89 40.26 40.95 37.74 35.30 34.56 37.05 35.42 34.07 35.88 34.37 34.55 34.38 31.17 26.17
55.45 55.45 54.98 54.60 54.11 54.10 52.92 52.26 51.83 51.50 50.18 48.09 49.06 41.91 48.60 50.34 41.13 42.36 38.89 41.28 41.82 41.89 43.56 41.59 40.71 39.26 37.17 37.34 35.62 35.26 34.78 38.17 42.28 41.36 36.62 37.62 33.68 30.54 33.19 38.10 38.89 36.76 35.42 35.58 29.06 28.50 31.24
55.67 55.41 55.06 54.26 53.93 53.74 53.30 52.37 51.82 52.15 50.51 48.73 44.78 44.57 48.12 47.35 37.75 39.12 41.40 40.81 42.03 41.42 41.21 41.03 39.74 41.30 40.78 36.95 33.28 36.74 37.60 42.26 42.58 40.61 37.32 38.85 33.25 27.32 27.48 32.55 35.95 33.97 35.68 35.97 35.21 33.89 30.95
55.69 55.11 54.84 54.32 53.78 53.51 53.30 52.77 51.95 51.84 51.72 47.78 44.23 40.35 41.22 42.05 42.77 39.93 37.71 38.50 38.68 42.83 41.60 42.67 41.07 41.36 38.85 36.83 39.09 35.55 36.67 41.48 41.80 41.81 43.12 40.08 34.87 30.49 27.01 28.89 31.86 31.51 34.24 35.64 34.65 29.19 30.73
55.65 55.03 54.78 54.46 53.85 53.73 53.25 52.79 52.23 51.58 52.06 47.76 43.98 41.08 43.44 39.00 39.85 40.63 39.93 39.46 37.69 37.37 41.28 41.72 39.10 39.18 37.83 34.01 35.71 35.58 38.18 38.74 41.12 42.86 39.55 37.79 31.39 30.76 32.13 34.76 33.15 33.13 33.07 34.73 32.52 33.92 29.26
55.55 55.20 54.69 54.40 53.95 53.97 53.12 52.61 52.29 51.67 51.65 45.59 43.19 40.57 40.48 38.84 40.23 38.62 39.25 37.23 37.74 38.67 38.69 37.47 36.80 39.12 37.91 34.83 35.74 33.54 36.30 35.74 35.58 39.13 36.83 38.40 30.98 32.31 28.12 32.46 31.64 28.91 33.73 34.81 34.07 35.36 33.88
55.64 55.20 54.62 54.34 54.00 53.88 53.05 52.40 52.03 51.73 50.93 45.39 46.31 44.45 40.98 40.24 38.33 36.43 37.38 38.43 38.40 39.17 39.93 40.73 38.49 36.45 35.76 37.58 38.52 38.30 38.30 38.79 36.66 35.13 36.76 34.91 32.88 29.40 26.26 28.81 29.70 26.38 31.96 34.04 34.61 36.39 35.95
54.40 54.96 54.59 54.27 53.73 53.50 52.92 52.14 51.88 51.94 50.69 47.44 45.33 44.01 40.04 36.20 37.74 38.03 39.42 39.00 38.45 38.67 36.91 39.49 39.29 36.35 37.47 40.12 39.64 37.58 38.25 38.20 38.13 36.48 37.06 34.37 32.14 30.15 27.48 25.41 18.39 32.15 32.67 35.51 36.41 37.26 38.11
51.71 54.32 54.64 54.42 53.85 53.32 52.88 52.17 51.98 52.18 51.61 48.08 46.35 42.54 40.90 36.52 39.15 39.12 39.25 38.33 37.99 37.85 36.45 37.88 39.37 39.31 40.46 37.02 32.83 29.93 30.24 30.19 33.75 35.35 34.51 35.10 32.13 26.94 23.25 23.14 29.95 30.97 30.39 32.70 34.11 34.50 37.28
50.86 51.31 52.94 54.12 53.61 52.94 52.69 52.22 52.03 52.27 52.16 49.09 46.01 46.06 42.33 37.84 36.54 40.05 37.66 38.01 35.68 35.19 35.39 37.36 39.27 40.12 38.92 36.07 31.14 23.69 23.36 23.83 23.52 28.17 33.71 34.16 32.83 27.96 25.55 22.47 20.66 28.25 31.06 34.71 34.23 29.52 34.77
49.73 50.04 50.53 51.34 53.85 53.04 52.60 52.17 51.97 52.20 52.13 48.04 46.41 46.23 43.02 38.57 40.15 38.30 36.77 36.77 39.05 36.52 34.82 36.02 36.01 35.26 36.94 32.73 29.10 25.46 25.24 27.73 22.61 22.49 24.79 27.77 29.20 26.02 25.85 24.36 28.86 31.99 32.74 34.50 25.66 29.06 35.83
48.26 49.18 49.72 50.19 52.33 53.20 52.68 52.29 52.00 52.06 51.71 48.27 45.94 45.94 43.34 40.47 40.03 39.54 40.39 37.24 37.56 36.79 34.31 35.49 35.15 34.93 33.29 29.98 29.03 29.02 26.25 27.99 25.25 27.84 26.92 27.88 26.02 25.48 26.73 23.87 20.99 33.31 31.64 28.70 32.96 33.58 35.26
46.79 48.11 48.86 49.08 50.14 53.19 52.54 52.30 52.03 51.92 51.21 49.84 45.31 45.40 45.11 40.26 40.16 41.09 41.06 40.53 39.35 38.64 36.98 37.15 35.33 35.84 37.20 32.07 31.06 30.02 27.70 29.17 28.08 25.03 28.36 23.92 30.12 27.85 30.54 29.96 33.49 34.28 32.98 33.73 36.30 36.02 34.06
MSLP
1022.41 1022.45 1022.41 1022.27 1022.12 1022.01 1021.97 1021.81 1021.71 1021.68 1021.61 1021.46 1021.32 1021.13 1021.03 1020.91 1020.71 1020.54 1020.42 1020.22 1020.01 1019.74 1019.52 1019.29 1019.02 1018.92 1018.55 1017.74 1016.76 1016.90 1017.05 1016.74 1016.70 1016.63 1016.61 1016.41 1016.46 1016.46 1015.99 1015.50 1015.53 1015.10 1014.44 1013.96 1012.88 1011.86 1011.46
1022.36 1022.35 1022.42 1022.26 1022.20 1022.05 1021.89 1021.68 1021.59 1021.64 1021.54 1021.41 1021.18 1021.02 1020.91 1020.72 1020.59 1020.42 1020.24 1020.03 1019.83 1019.54 1019.29 1019.06 1018.90 1018.90 1018.57 1017.53 1016.44 1016.68 1016.84 1016.80 1016.68 1016.65 1016.43 1016.10 1015.99 1016.13 1015.81 1015.56 1015.60 1014.84 1014.52 1014.43 1013.57 1012.61 1011.57
1022.44 1022.35 1022.42 1022.32 1022.25 1022.18 1021.94 1021.73 1021.54 1021.40 1021.28 1021.20 1021.03 1020.89 1020.79 1020.64 1020.52 1020.31 1020.08 1019.84 1019.54 1019.22 1019.02 1018.77 1018.73 1018.56 1018.03 1017.14 1016.36 1016.54 1016.63 1016.57 1016.62 1016.64 1016.22 1015.83 1015.75 1016.00 1015.76 1015.95 1015.60 1015.40 1015.15 1014.70 1013.87 1013.12 1012.05
1022.41 1022.29 1022.30 1022.17 1022.22 1022.19 1021.98 1021.71 1021.44 1021.22 1021.06 1021.00 1020.92 1020.75 1020.65 1020.48 1020.28 1020.10 1019.83 1019.56 1019.24 1018.87 1018.60 1018.52 1018.48 1018.28 1017.49 1016.23 1016.40 1016.41 1016.24 1016.15 1016.30 1016.37 1016.23 1015.85 1015.72 1015.90 1015.81 1015.88 1015.99 1015.97 1015.74 1015.23 1013.93 1013.72 1012.82
1022.43 1022.22 1022.10 1021.93 1021.90 1021.99 1021.90 1021.60 1021.34 1021.10 1020.89 1020.85 1020.72 1020.69 1020.52 1020.28 1020.06 1019.83 1019.49 1019.08 1018.65 1018.33 1018.12 1018.21 1018.19 1017.86 1016.74 1016.36 1016.36 1016.01 1016.52 1016.45 1016.33 1016.21 1015.92 1015.77 1015.74 1015.57 1015.93 1016.34 1016.60 1016.72 1016.05 1015.29 1014.35 1013.79 1013.69
1022.06 1022.12 1021.88 1021.61 1021.65 1021.75 1021.66 1021.44 1021.20 1021.02 1020.85 1020.70 1020.56 1020.48 1020.27 1020.07 1019.79 1019.52 1019.10 1018.36 1017.83 1017.95 1017.70 1017.35 1017.40 1017.65 1016.47 1015.98 1015.77 1016.09 1016.37 1016.41 1016.33 1016.10 1016.10 1016.18 1016.07 1015.97 1016.11 1016.36 1015.90 1016.03 1015.89 1015.17 1014.16 1013.66 1013.45
1021.57 1021.58 1021.67 1021.56 1021.40 1021.30 1021.30 1021.22 1021.09 1020.88 1020.72 1020.56 1020.42 1020.20 1020.05 1019.86 1019.58 1019.35 1018.88 1017.60 1017.79 1017.96 1017.14 1016.60 1016.67 1016.50 1016.17 1015.95 1015.67 1016.03 1016.17 1016.20 1016.37 1016.25 1016.12 1015.99 1015.91 1015.40 1015.72 1015.91 1015.97 1015.90 1015.65 1014.71 1013.44 1013.10 1013.89
1021.22 1021.22 1021.09 1021.21 1021.18 1021.09 1020.96 1020.93 1020.94 1020.81 1020.61 1020.43 1020.14 1019.97 1019.81 1019.72 1019.43 1019.22 1018.99 1017.95 1018.24 1018.58 1017.47 1016.25 1016.46 1016.27 1015.82 1016.08 1015.87 1015.90 1016.23 1016.44 1016.24 1016.01 1015.91 1016.31 1015.55 1015.35 1015.52 1015.55 1015.78 1015.79 1015.44 1014.00 1013.03 1012.51 1012.67
1020.77 1020.85 1020.80 1020.73 1020.86 1020.86 1020.77 1020.70 1020.64 1020.62 1020.46 1020.23 1020.02 1019.80 1019.65 1019.59 1019.29 1019.07 1018.23 1018.30 1018.27 1018.25 1017.68 1016.37 1016.02 1015.94 1015.83 1016.13 1015.48 1015.24 1015.98 1015.99 1016.28 1016.06 1015.80 1015.69 1015.23 1015.44 1015.31 1015.22 1015.43 1014.98 1014.27 1013.48 1012.69 1011.83 1011.51
1020.13 1020.30 1020.44 1020.47 1020.49 1020.67 1020.62 1020.54 1020.37 1020.25 1020.26 1020.11 1019.88 1019.64 1019.57 1019.39 1019.48 1018.25 1017.99 1018.33 1018.33 1018.32 1017.93 1016.92 1015.78 1015.81 1015.70 1015.44 1014.94 1014.27 1015.02 1015.57 1015.89 1015.75 1015.80 1015.76 1015.08 1014.97 1014.64 1014.51 1014.66 1013.98 1012.27 1012.05 1011.95 1011.21 1009.90
1019.65 1019.75 1019.96 1020.13 1020.36 1020.30 1020.40 1020.21 1020.02 1020.02 1019.87 1019.90 1019.69 1019.52 1019.48 1019.36 1019.04 1018.16 1018.49 1018.39 1018.35 1018.41 1017.87 1016.24 1015.44 1015.38 1015.35 1015.24 1014.64 1013.88 1013.96 1014.46 1014.64 1015.06 1015.49 1014.97 1014.62 1014.35 1013.80 1013.39 1013.72 1012.82 1010.89 1010.92 1011.02 1010.10 1009.47
1019.07 1019.24 1019.29 1019.83 1019.96 1020.07 1020.03 1019.97 1019.84 1019.82 1019.64 1019.51 1019.50 1019.41 1019.41 1019.04 1018.81 1018.45 1018.46 1018.44 1018.49 1018.39 1016.86 1016.07 1015.45 1015.31 1014.65 1014.04 1013.64 1013.40 1013.45 1014.04 1013.93 1014.17 1014.03 1014.00 1014.12 1013.94 1013.17 1012.24 1012.26 1011.37 1010.89 1010.72 1010.93 1010.24 1009.77
1018.54 1018.72 1018.84 1019.16 1019.60 1019.75 1019.75 1019.72 1019.61 1019.60 1019.40 1019.31 1019.26 1019.29 1019.39 1018.69 1018.49 1018.49 1018.56 1018.37 1018.34 1017.20 1016.31 1015.56 1015.28 1014.97 1014.44 1013.56 1013.28 1013.18 1013.15 1013.30 1013.42 1013.58 1013.26 1013.33 1013.16 1012.71 1012.66 1011.73 1011.19 1011.09 1010.95 1010.61 1011.23 1010.47 1009.56
1017.87 1018.14 1018.40 1018.54 1019.06 1019.38 1019.48 1019.44 1019.33 1019.39 1019.24 1019.18 1019.12 1019.21 1019.08 1018.55 1018.53 1018.60 1018.52 1018.20 1017.49 1015.97 1015.23 1014.81 1014.86 1014.45 1014.04 1013.44 1013.00 1012.93 1012.69 1012.37 1012.39 1012.69 1012.66 1012.47 1012.17 1011.79 1011.17 1010.95 1009.99 1009.77 1009.79 1010.02 1010.24 1009.93 1009.73
1017.14 1017.56 1017.81 1018.02 1018.42 1018.87 1019.09 1019.21 1019.06 1019.11 1019.18 1019.01 1019.10 1019.00 1018.64 1018.44 1018.65 1018.72 1018.51 1017.47 1015.82 1014.96 1014.74 1014.41 1013.98 1013.87 1013.37 1013.12 1013.16 1012.57 1011.95 1011.61 1011.68 1011.89 1012.26 1011.77 1011.09 1010.39 1009.98 1009.68 1009.59 1009.03 1009.51 1009.53 1010.00 1009.88 1009.80
1016.40 1016.90 1017.19 1017.41 1017.81 1018.31 1018.65 1018.92 1018.83 1018.83 1018.98 1018.85 1018.65 1018.25 1018.17 1018.58 1018.71 1018.68 1018.10 1016.35 1014.90 1014.43 1014.32 1014.14 1013.77 1012.98 1012.84 1012.51 1012.62 1011.94 1011.31 1011.41 1011.38 1011.42 1011.62 1011.41 1010.82 1010.01 1009.36 1009.10 1008.92 1009.04 1009.62 1010.26 1010.01 1009.86 1009.47
1015.53 1016.08 1016.54 1016.72 1017.18 1017.76 1018.15 1018.48 1018.63 1018.58 1018.71 1018.72 1018.53 1017.93 1018.64 1018.65 1018.76 1018.38 1017.18 1015.37 1014.30 1013.93 1014.04 1013.90 1013.49 1013.15 1012.70 1012.38 1012.19 1011.77 1011.39 1011.27 1011.40 1011.37 1011.36 1011.34 1010.81 1010.20 1009.65 1009.44 1009.52 1009.34 1009.50 1009.43 1009.46 1009.13 1009.16
1014.55 1015.21 1015.73 1016.12 1016.55 1017.13 1017.65 1017.97 1018.38 1018.41 1018.51 1018.85 1017.76 1018.11 1018.62 1018.68 1018.60 1017.15 1015.83 1014.57 1014.24 1013.66 1013.78 1013.78 1013.61 1013.30 1012.90 1012.57 1012.10 1011.73 1011.54 1011.48 1011.67 1011.70 1011.49 1011.16 1011.13 1010.42 1009.87 1009.57 1009.55 1009.49 1009.17 1009.65 1009.63 1009.67 1009.36
1013.68 1014.37 1014.83 1015.40 1015.85 1016.48 1017.05 1017.45 1017.93 1018.15 1018.24 1018.15 1017.38 1017.73 1018.75 1018.57 1017.58 1016.03 1014.72 1014.33 1013.97 1013.49 1013.44 1013.40 1013.18 1012.96 1012.85 1012.74 1012.53 1011.69 1011.57 1011.63 1011.79 1011.84 1011.94 1011.72 1011.17 1010.89 1010.12 1010.14 1009.74 1009.38 1009.22 1009.23 1009.41 1008.99 1008.31
1012.51 1013.34 1014.01 1014.60 1015.14 1015.81 1016.40 1016.82 1017.48 1017.73 1018.01 1018.38 1017.23 1017.29 1018.20 1018.29 1016.85 1015.92 1014.60 1013.59 1013.36 1013.21 1013.26 1013.13 1013.01 1012.91 1012.90 1012.54 1012.11 1012.01 1011.86 1011.68 1011.94 1011.92 1012.09 1012.20 1011.66 1011.41 1011.49 1011.12 1010.60 1009.57 1009.25 1008.89 1008.98 1008.81 1008.25
1011.36 1012.56 1013.23 1013.77 1014.30 1014.99 1015.68 1016.17 1016.97 1017.25 1017.90 1018.34 1016.84 1015.79 1015.34 1016.20 1015.39 1014.92 1014.20 1013.47 1013.12 1013.01 1013.25 1013.12 1012.90 1012.87 1012.90 1012.65 1012.13 1011.94 1011.92 1011.86 1011.92 1011.97 1012.05 1012.11 1012.05 1011.75 1011.48 1010.93 1010.49 1009.98 1009.43 1009.08 1008.94 1008.48 1008.45
1010.54 1011.67 1012.40 1013.01 1013.43 1014.16 1014.99 1015.54 1016.25 1016.92 1017.70 1018.05 1016.19 1015.52 1015.21 1014.88 1014.25 1014.10 1013.74 1013.17 1012.75 1012.57 1012.76 1012.86 1013.05 1012.87 1013.01 1013.06 1012.90 1012.74 1012.76 1012.45 1012.22 1012.09 1012.06 1012.13 1012.25 1011.98 1011.54 1011.04 1010.65 1009.99 1009.34 1008.94 1008.87 1008.52 1008.21
1009.70 1010.59 1011.48 1012.11 1012.71 1013.43 1014.27 1014.99 1015.61 1016.49 1017.28 1016.86 1015.52 1015.15 1015.16 1014.34 1013.78 1013.56 1012.89 1012.53 1012.43 1012.62 1012.62 1012.87 1013.09 1013.35 1013.36 1013.33 1013.28 1013.15 1013.09 1012.99 1012.90 1012.83 1012.33 1012.53 1012.53 1012.55 1011.89 1011.24 1010.68 1009.87 1008.45 1008.38 1008.51 1008.18 1007.88
1009.15 1009.01 1010.46 1011.41 1011.92 1012.61 1013.52 1014.32 1015.05 1015.78 1016.57 1016.40 1015.55 1015.27 1014.99 1014.19 1013.39 1012.72 1012.46 1012.53 1012.56 1012.88 1013.03 1013.17 1013.48 1013.66 1013.98 1013.72 1013.48 1013.26 1013.06 1012.94 1012.84 1012.76 1012.78 1012.66 1012.88 1012.93 1012.48 1011.59 1010.56 1008.39 1007.99 1007.77 1007.89 1007.71 1007.61
1010.00 1008.55 1009.27 1010.38 1011.14 1012.10 1012.84 1013.74 1014.52 1015.22 1015.99 1016.55 1015.91 1015.74 1015.02 1014.30 1013.14 1012.35 1012.29 1012.64 1012.80 1013.10 1013.47 1013.69 1013.84 1014.14 1014.03 1013.96 1013.85 1013.25 1013.00 1012.92 1012.47 1012.63 1012.86 1012.96 1013.03 1013.06 1012.77 1011.69 1009.72 1008.38 1008.15 1008.04 1007.75 1007.91 1007.78
1010.39 1010.02 1009.48 1009.82 1011.00 1011.68 1012.41 1013.21 1013.97 1014.81 1015.55 1016.15 1015.85 1015.97 1015.44 1015.06 1013.12 1012.22 1012.48 1012.62 1012.96 1013.02 1013.58 1013.99 1014.48 1014.45 1014.31 1014.20 1014.05 1013.71 1012.92 1012.52 1012.74 1012.95 1013.07 1013.17 1013.19 1013.57 1012.62 1011.96 1010.06 1008.69 1008.41 1008.20 1008.02 1008.48 1008.35
1010.76 1010.20 1010.24 1010.37 1010.64 1011.29 1011.90 1012.63 1013.45 1014.21 1014.86 1015.55 1015.49 1015.70 1015.52 1015.26 1013.40 1012.92 1013.08 1013.12 1013.05 1013.18 1013.51 1014.11 1014.60 1014.78 1014.61 1014.40 1014.20 1013.71 1013.14 1012.82 1012.74 1012.57 1013.00 1013.22 1013.21 1013.18 1012.99 1012.09 1010.10 1008.92 1008.79 1008.67 1008.87 1009.68 1009.07
1011.14 1010.89 1010.89 1010.66 1010.22 1010.55 1011.29 1012.03 1012.84 1013.57 1014.40 1015.10 1015.37 1015.41 1015.51 1015.21 1013.95 1013.58 1013.56 1013.62 1013.64 1013.88 1013.84 1014.30 1014.65 1014.74 1014.82 1014.59 1014.20 1013.60 1013.48 1013.03 1012.77 1012.05 1012.20 1012.57 1012.75 1012.66 1012.18 1011.53 1010.47 1009.29 1009.29 1009.26 1009.47 1009.52 1009.65
1011.63 1011.13 1011.05 1010.72 1009.98 1009.65 1010.61 1011.36 1012.16 1012.99 1013.91 1014.48 1014.99 1015.33 1015.64 1015.81 1014.71 1014.25 1014.10 1014.23 1014.30 1014.32 1014.42 1014.27 1014.34 1014.10 1013.99 1014.29 1014.06 1013.91 1013.60 1013.17 1012.84 1012.40 1012.14 1012.10 1011.77 1011.61 1011.00 1010.21 1009.39 1009.35 1009.26 1009.29 1009.40 1009.83 1010.29
Wind_Speed
7 6 7 6 6 4 5 4 7 7 8 9 9 9 10 10 11 11 12 13 14 15 15 15 13 11 9 5 8 8 4 4 8 8 9 11 13 11 12 7 13 17 20 18 16 23 18
7 7 9 7 6 6 5 6 6 6 8 8 9 10 11 11 11 12 13 14 15 15 15 14 10 6 5 10 4 3 5 7 9 10 12 11 11 12 10 15 16 9 14 16 18 21 17
8 7 9 9 8 7 7 7 6 7 8 9 10 10 11 11 12 14 15 17 16 16 15 13 7 6 9 13 2 1 5 8 8 11 15 13 11 10 6 7 7 9 13 13 15 15 19
9 8 9 8 8 9 8 8 8 9 9 10 11 11 12 12 13 14 16 17 17 16 15 11 6 6 6 7 2 7 8 10 7 11 15 14 7 13 16 3 2 1 4 7 10 13 18
10 9 9 9 9 9 10 9 9 9 10 11 11 12 12 12 14 15 17 18 18 18 11 9 5 5 6 3 4 2 2 6 9 10 8 12 8 7 2 4 1 3 6 9 13 16 12
9 11 10 9 8 9 10 10 10 10 11 11 10 11 12 13 13 15 17 21 15 9 8 8 6 5 5 9 8 2 1 7 3 4 3 5 4 5 5 6 10 6 6 9 12 6 21
8 9 9 9 8 9 9 10 11 11 11 11 11 10 12 13 13 14 12 5 2 4 8 6 6 8 10 11 7 3 2 6 3 5 5 6 6 10 11 10 10 10 11 13 14 12 15
8 9 9 9 7 8 8 7 11 11 11 11 10 10 11 12 13 12 8 4 4 2 7 7 7 10 7 2 6 4 3 2 4 6 7 3 10 12 8 9 12 14 16 20 17 16 15
10 9 10 5 6 7 6 5 9 11 11 11 10 9 9 11 12 8 2 4 2 5 5 5 4 5 4 2 6 4 5 5 1 4 10 9 3 3 17 10 11 13 16 14 13 16 25
13 11 10 6 4 5 5 6 8 8 10 10 10 8 8 10 6 2 1 2 3 5 2 6 3 2 3 5 5 4 5 3 2 3 6 6 5 9 11 9 10 9 17 22 16 16 8
13 12 10 6 3 3 6 7 7 8 9 9 8 6 6 4 7 2 3 2 2 3 3 6 2 2 5 7 9 6 5 4 5 4 4 2 3 6 11 9 12 10 5 12 14 12 6
15 11 11 7 5 5 7 7 5 8 8 7 7 5 5 4 4 3 1 2 2 2 3 5 1 5 7 4 4 4 5 4 0 6 8 4 3 4 3 9 15 13 7 3 3 7 6
15 13 10 9 8 6 7 6 4 7 7 6 5 3 3 5 3 1 2 3 2 2 3 5 3 4 11 5 6 3 4 6 3 5 2 3 4 2 2 4 10 12 9 2 4 1 5
16 14 12 11 10 7 7 5 3 6 6 5 3 3 4 4 2 1 3 3 2 3 3 2 3 8 6 6 3 4 4 4 5 4 3 3 1 2 8 6 4 7 3 2 2 4 3
18 16 15 13 13 9 7 4 2 4 4 2 3 4 3 2 1 1 4 2 4 2 1 5 8 5 5 3 2 5 8 3 2 5 4 5 3 4 3 3 4 1 3 4 4 2 4
19 17 16 14 14 11 7 3 2 2 5 4 3 3 3 3 1 2 3 5 2 1 1 2 5 1 6 5 2 4 3 4 5 3 4 5 5 1 2 2 3 2 6 4 3 4 5
21 19 18 18 14 13 10 5 2 1 4 3 3 3 2 2 2 3 4 5 2 5 3 2 6 5 8 8 6 7 3 1 6 5 5 6 4 3 2 2 3 2 1 2 1 1 2
21 21 19 16 16 15 13 8 4 3 1 2 3 3 1 2 3 4 3 3 2 4 5 5 3 8 7 8 6 4 4 5 5 5 5 2 4 3 0 3 2 2 2 2 1 5 4
24 22 21 18 17 17 15 11 7 5 5 4 3 4 1 2 4 5 5 3 4 4 5 4 4 5 6 4 5 5 4 4 3 3 5 6 4 4 3 1 2 2 3 3 5 5 5
27 23 22 20 18 18 17 14 10 6 6 2 3 3 3 3 4 4 5 7 6 5 6 4 7 6 6 7 7 5 6 1 1 2 1 3 4 2 2 7 3 1 4 2 4 2 8
24 23 20 21 20 20 18 16 13 9 7 2 3 4 2 4 7 9 5 6 5 4 4 2 5 8 8 5 7 6 4 4 4 2 3 1 4 5 6 6 3 3 2 4 3 6 3
23 23 22 22 21 20 19 17 16 11 8 3 3 2 2 4 1 5 6 4 6 6 2 6 6 8 4 6 7 4 6 3 3 3 2 1 3 4 4 4 5 4 5 5 3 5 6
24 24 22 22 21 22 20 18 16 13 13 4 0 2 0 4 5 4 5 7 1 1 3 4 4 5 7 3 5 5 4 4 3 4 2 2 3 4 3 2 5 6 8 7 5 5 3
10 27 24 22 19 20 21 20 18 18 16 3 2 1 2 5 5 5 2 1 3 6 3 2 2 4 1 4 6 5 7 6 6 6 3 2 2 1 5 3 2 7 3 4 10 6 8
18 7 19 16 17 18 22 21 18 18 19 4 2 2 2 4 4 5 6 5 2 3 2 2 2 3 3 3 3 4 3 3 6 2 4 3 3 3 2 3 9 3 1 4 5 3 2
14 19 13 14 17 18 22 22 20 19 17 4 2 2 1 3 2 2 2 4 4 5 4 3 2 2 1 2 1 3 3 2 2 3 2 3 3 0 2 3 4 2 2 2 1 2 4
16 17 20 18 20 19 22 23 21 18 18 5 2 3 0 3 2 2 2 1 2 3 2 3 4 2 1 2 2 3 3 1 2 3 4 2 3 5 5 4 7 2 3 1 5 2 2
14 15 15 19 11 20 22 23 21 19 18 7 1 4 1 3 2 2 1 2 1 2 2 2 3 1 1 1 1 1 1 1 2 2 4 6 4 4 3 3 7 3 2 1 3 2 3
15 14 15 18 20 23 22 24 22 21 19 10 2 2 2 3 3 1 2 1 1 3 1 2 0 2 3 2 1 1 2 1 2 3 3 2 4 3 5 6 0 6 2 2 3 4 2
Wind_Direction
302 314 317 324 331 335 335 343 345 342 341 331 327 326 325 325 324 321 319 318 316 318 319 314 311 322 316 255 273 130 207 324 313 271 257 238 240 237 239 249 248 242 252 259 265 262 271
292 299 294 301 299 316 321 326 331 323 324 319 322 321 322 324 319 314 312 309 305 310 314 312 299 315 272 271 92 131 354 324 303 282 267 249 234 235 273 244 261 275 250 258 273 275 253
292 304 307 305 304 301 300 318 326 317 315 315 317 318 319 320 316 316 310 306 304 307 308 305 284 285 280 262 276 307 287 281 280 280 271 255 245 226 206 243 271 270 268 278 269 274 278
286 278 277 282 295 296 309 312 312 314 311 315 315 319 319 325 319 316 308 300 299 301 301 287 271 283 255 298 354 280 292 292 308 279 267 263 267 245 234 322 178 319 293 265 256 269 279
286 281 278 286 286 295 299 302 305 313 309 311 311 317 317 321 319 315 305 298 294 289 277 268 236 210 271 133 234 7 61 271 296 277 260 247 221 216 202 195 121 168 246 232 264 234 254
280 289 284 279 282 291 294 296 295 302 302 304 307 311 317 323 322 317 309 295 280 298 239 214 241 275 226 302 345 40 264 276 273 272 85 234 218 195 212 179 216 199 217 237 241 224 224
268 268 282 288 297 305 294 301 302 301 303 302 307 312 320 322 322 321 319 315 227 198 232 259 308 276 294 320 300 131 24 327 229 211 205 203 206 213 207 213 257 295 291 269 258 256 254
258 271 270 264 268 275 288 304 306 305 304 301 305 316 321 322 319 310 293 322 53 330 302 279 252 266 275 44 295 173 109 353 299 204 200 185 239 229 234 227 243 239 246 246 277 265 268
237 261 278 267 270 285 297 314 305 307 308 306 308 314 320 318 319 292 308 43 337 308 266 285 260 285 307 328 276 301 189 157 225 276 230 232 190 328 245 216 226 230 235 246 247 278 236
231 231 263 265 267 293 303 298 296 303 308 306 305 312 316 318 297 357 96 79 308 298 327 282 199 174 265 258 262 191 187 244 223 233 243 258 225 242 216 215 202 252 245 235 216 206 184
240 231 234 237 239 257 280 280 295 312 314 306 304 305 308 313 318 279 57 309 302 251 334 277 10 93 256 271 299 193 178 203 302 258 195 258 237 246 239 224 187 236 335 186 244 197 189
230 237 213 216 209 254 270 284 309 314 316 313 313 293 292 236 223 51 4 295 250 259 278 322 333 323 305 292 285 276 217 210 269 282 233 277 197 239 283 263 199 258 294 51 262 236 193
229 221 207 203 211 234 267 283 307 314 322 315 318 258 231 308 19 57 276 231 294 281 45 308 314 330 315 292 313 295 309 282 278 316 7 277 308 276 274 267 216 248 272 195 166 52 206
225 218 216 201 202 220 255 268 290 317 324 314 303 197 213 293 340 268 242 251 281 251 242 131 219 294 282 340 332 286 268 266 171 248 294 299 299 217 198 223 309 208 222 152 198 168 191
219 220 216 207 193 203 238 252 247 311 318 319 165 200 181 135 228 261 260 267 215 262 10 319 302 261 291 203 225 310 262 327 12 7 354 334 346 189 244 324 326 189 38 3 331 44 99
219 216 212 205 189 196 199 235 240 306 303 230 258 188 114 129 225 249 256 251 248 208 276 237 283 317 326 359 212 278 329 73 357 24 358 294 308 6 341 276 208 359 101 294 288 180 211
215 215 216 219 187 186 191 188 260 244 325 169 230 228 92 158 221 229 242 252 302 181 223 257 312 299 325 346 318 305 299 50 26 339 310 283 215 285 264 37 26 0 315 273 201 118 297
215 213 212 203 186 178 187 178 219 189 149 250 274 234 176 228 223 233 233 229 355 244 185 262 270 265 273 328 307 312 334 349 21 314 304 77 296 282 60 151 171 232 109 71 286 336 270
216 213 206 203 189 179 181 181 191 198 197 302 235 109 139 234 234 216 214 239 243 223 211 222 250 233 316 297 316 329 353 94 357 311 360 344 290 315 285 254 198 242 148 205 248 271 261
206 209 207 200 187 182 180 175 178 200 204 253 278 193 134 214 273 279 291 262 221 176 280 249 270 295 275 268 246 269 301 99 64 285 317 293 283 257 238 257 291 167 192 189 303 333 324
197 204 206 199 191 183 181 172 175 186 194 242 225 245 115 193 221 224 276 302 240 216 214 236 264 238 279 293 314 266 354 279 180 205 253 74 286 10 299 247 296 271 328 170 238 264 2
196 202 202 204 194 185 179 175 168 174 178 245 258 244 141 289 90 237 220 256 232 241 166 213 225 298 291 274 278 334 352 313 9 177 292 250 285 318 278 195 263 279 260 242 217 305 299
200 196 203 203 193 183 180 173 165 162 184 231 201 132 78 284 182 212 225 213 163 261 210 291 344 322 279 309 355 324 288 292 282 315 217 272 314 355 297 302 304 293 220 192 163 215 217
327 185 196 199 193 184 176 170 173 169 193 329 346 342 192 262 203 212 211 280 248 222 273 113 238 256 77 300 296 264 252 242 248 232 248 281 237 229 272 327 267 243 60 103 189 213 225
20 221 186 197 195 191 175 175 178 176 196 235 313 248 257 269 268 246 233 233 185 145 230 265 134 43 324 301 309 285 223 242 223 196 241 212 303 277 179 255 271 244 259 143 153 237 329
16 21 21 203 206 195 183 179 179 183 186 200 259 260 335 312 249 27 328 198 235 200 142 163 100 339 275 270 282 271 274 346 215 195 215 291 262 229 308 262 278 306 97 10 1 226 20
352 358 3 0 209 196 186 179 180 179 173 175 212 178 105 255 278 23 235 218 189 322 84 130 159 156 354 237 253 240 282 67 279 244 169 187 216 204 253 273 299 338 111 258 127 200 62
347 1 341 350 296 195 187 179 178 172 175 165 119 168 160 262 281 42 324 258 145 279 270 148 98 268 142 218 248 281 262 213 317 202 181 178 176 202 200 218 278 154 48 58 189 53 63
352 345 346 346 326 194 188 179 175 170 173 184 166 159 163 257 296 2 352 19 340 130 330 175 296 156 208 210 252 336 277 192 289 276 2 283 198 207 184 218 132 189 61 57 46 115 79